When you browse on this site, cookies collect data to enhance your experience and personalize the content and advertising you see.
Visit our Privacy Policy to learn more. By continuing to use the site, you agree to this use of cookies and data.

Hourly Weather Macapa

Today, 11 July, Saturday

Time Temperature Precipitation Wind Pressure Humidity
00:00 +26°C° 0 mm 3 mps 759 mmHg 93%
01:00 +26°C° 0.2 mm 2 mps 759 mmHg 93%
02:00 +26°C° 0.2 mm 2 mps 759 mmHg 94%
03:00 +26°C° 0.2 mm 2 mps 758 mmHg 95%
04:00 +25°C° 0.4 mm 2 mps 758 mmHg 95%
05:00 +25°C° 0.4 mm 2 mps 758 mmHg 95%
06:00 +25°C° 0.4 mm 2 mps 758 mmHg 96%
07:00 +26°C° 1 mm 2 mps 758 mmHg 92%
08:00 +28°C° 1 mm 2 mps 759 mmHg 88%
09:00 +29°C° 1 mm 2 mps 759 mmHg 84%
10:00 +29°C° 1.2 mm 2 mps 759 mmHg 84%
11:00 +30°C° 1.2 mm 2 mps 759 mmHg 84%
12:00 +30°C° 1.2 mm 2 mps 759 mmHg 84%
13:00 +30°C° 1 mm 3 mps 758 mmHg 82%
14:00 +30°C° 1 mm 3 mps 757 mmHg 81%
15:00 +30°C° 1 mm 3 mps 757 mmHg 79%
16:00 +30°C° 0.2 mm 3 mps 757 mmHg 81%
17:00 +29°C° 0.2 mm 3 mps 757 mmHg 82%
18:00 +29°C° 0.2 mm 3 mps 757 mmHg 84%
19:00 +28°C° 0 mm 3 mps 758 mmHg 87%
20:00 +27°C° 0 mm 3 mps 758 mmHg 90%
21:00 +26°C° 0 mm 2 mps 759 mmHg 93%
22:00 +26°C° 0 mm 2 mps 759 mmHg 94%
23:00 +26°C° 0 mm 2 mps 759 mmHg 94%

Tomorrow, 12 July, Sunday

Time Temperature Precipitation Wind Pressure Humidity
00:00 +26°C° 0 mm 2 mps 759 mmHg 95%
01:00 +26°C° 0 mm 2 mps 758 mmHg 95%
02:00 +25°C° 0 mm 2 mps 758 mmHg 95%
03:00 +25°C° 0 mm 2 mps 757 mmHg 95%
04:00 +25°C° 0 mm 2 mps 758 mmHg 95%
05:00 +25°C° 0 mm 2 mps 758 mmHg 95%
06:00 +25°C° 0 mm 1 mps 758 mmHg 95%
07:00 +26°C° 0 mm 2 mps 758 mmHg 90%
08:00 +28°C° 0 mm 2 mps 759 mmHg 85%
09:00 +29°C° 0 mm 2 mps 759 mmHg 80%
10:00 +30°C° 0 mm 2 mps 759 mmHg 73%
11:00 +33°C° 0 mm 3 mps 759 mmHg 66%
12:00 +34°C° 0 mm 3 mps 759 mmHg 59%
13:00 +34°C° 0 mm 3 mps 758 mmHg 57%
14:00 +34°C° 0 mm 3 mps 757 mmHg 55%
15:00 +35°C° 0 mm 3 mps 757 mmHg 53%
16:00 +34°C° 0 mm 3 mps 756 mmHg 59%
17:00 +31°C° 0 mm 3 mps 756 mmHg 65%
18:00 +30°C° 0 mm 2 mps 756 mmHg 72%
19:00 +29°C° 0 mm 3 mps 757 mmHg 77%
20:00 +28°C° 0 mm 3 mps 758 mmHg 83%
21:00 +27°C° 0 mm 3 mps 758 mmHg 89%
22:00 +26°C° 0.1 mm 3 mps 758 mmHg 90%
23:00 +26°C° 0.1 mm 3 mps 759 mmHg 92%

Day after tomorrow, 13 July, Monday

Time Temperature Precipitation Wind Pressure Humidity
00:00 +26°C° 0.1 mm 3 mps 759 mmHg 94%
01:00 +26°C° 0.1 mm 3 mps 759 mmHg 95%
02:00 +25°C° 0.1 mm 3 mps 758 mmHg 95%
03:00 +25°C° 0.1 mm 2 mps 758 mmHg 96%
04:00 +25°C° 0 mm 2 mps 758 mmHg 96%
05:00 +25°C° 0 mm 2 mps 758 mmHg 96%
06:00 +25°C° 0 mm 2 mps 758 mmHg 96%
07:00 +26°C° 0.1 mm 2 mps 758 mmHg 91%
08:00 +28°C° 0.1 mm 2 mps 759 mmHg 86%
09:00 +29°C° 0.1 mm 2 mps 759 mmHg 80%
10:00 +31°C° 0.1 mm 2 mps 759 mmHg 72%
11:00 +32°C° 0.1 mm 2 mps 759 mmHg 63%
12:00 +34°C° 0.1 mm 2 mps 759 mmHg 55%
13:00 +35°C° 0 mm 2 mps 758 mmHg 53%
14:00 +35°C° 0 mm 2 mps 758 mmHg 51%
15:00 +35°C° 0 mm 2 mps 757 mmHg 50%
16:00 +34°C° 0 mm 2 mps 757 mmHg 57%
17:00 +31°C° 0 mm 2 mps 757 mmHg 64%
18:00 +30°C° 0 mm 2 mps 757 mmHg 72%
19:00 +29°C° 0.1 mm 2 mps 758 mmHg 76%
20:00 +28°C° 0.1 mm 3 mps 758 mmHg 81%
21:00 +27°C° 0.1 mm 3 mps 759 mmHg 85%
22:00 +26°C° 0.3 mm 3 mps 759 mmHg 88%
23:00 +26°C° 0.3 mm 3 mps 759 mmHg 90%

14 July, Tuesday

Time Temperature Precipitation Wind Pressure Humidity
00:00 +26°C° 0.3 mm 2 mps 759 mmHg 92%
01:00 +25°C° 0.2 mm 3 mps 759 mmHg 93%
02:00 +25°C° 0.2 mm 3 mps 758 mmHg 94%
03:00 +25°C° 0.2 mm 3 mps 758 mmHg 95%
04:00 +25°C° 0.2 mm 3 mps 758 mmHg 95%
05:00 +25°C° 0.2 mm 2 mps 758 mmHg 96%
06:00 +25°C° 0.2 mm 2 mps 758 mmHg 96%
07:00 +26°C° 0.2 mm 2 mps 759 mmHg 93%
08:00 +27°C° 0.2 mm 2 mps 759 mmHg 89%
09:00 +28°C° 0.2 mm 2 mps 760 mmHg 86%
10:00 +30°C° 0.3 mm 2 mps 759 mmHg 75%
11:00 +32°C° 0.3 mm 2 mps 759 mmHg 65%
12:00 +34°C° 0.3 mm 2 mps 759 mmHg 54%
13:00 +35°C° 0.1 mm 2 mps 759 mmHg 53%
14:00 +35°C° 0.1 mm 2 mps 758 mmHg 51%
15:00 +34°C° 0.1 mm 1 mps 757 mmHg 49%
16:00 +33°C° 0 mm 1 mps 757 mmHg 56%
17:00 +31°C° 0 mm 1 mps 757 mmHg 63%
18:00 +30°C° 0 mm 1 mps 757 mmHg 69%
19:00 +29°C° 0.1 mm 2 mps 758 mmHg 74%
20:00 +28°C° 0.1 mm 2 mps 759 mmHg 79%
21:00 +27°C° 0.1 mm 2 mps 759 mmHg 84%
22:00 +26°C° 0.1 mm 2 mps 759 mmHg 86%
23:00 +26°C° 0.1 mm 2 mps 759 mmHg 88%

15 July, Wednesday

Time Temperature Precipitation Wind Pressure Humidity
00:00 +26°C° 0.1 mm 2 mps 759 mmHg 90%
01:00 +25°C° 0.2 mm 2 mps 759 mmHg 91%
02:00 +25°C° 0.2 mm 2 mps 758 mmHg 92%
03:00 +25°C° 0.2 mm 2 mps 758 mmHg 93%
04:00 +25°C° 0.5 mm 2 mps 758 mmHg 94%
05:00 +25°C° 0.5 mm 2 mps 758 mmHg 94%
06:00 +25°C° 0.5 mm 2 mps 758 mmHg 94%
07:00 +26°C° 0.2 mm 2 mps 759 mmHg 90%
08:00 +27°C° 0.2 mm 2 mps 759 mmHg 86%
09:00 +28°C° 0.2 mm 2 mps 760 mmHg 82%
10:00 +29°C° 0.2 mm 2 mps 760 mmHg 79%
11:00 +30°C° 0.2 mm 2 mps 759 mmHg 75%
12:00 +30°C° 0.2 mm 2 mps 759 mmHg 72%
13:00 +31°C° 0.2 mm 2 mps 759 mmHg 67%
14:00 +33°C° 0.2 mm 3 mps 758 mmHg 62%
15:00 +34°C° 0.2 mm 3 mps 757 mmHg 57%
16:00 +31°C° 0.3 mm 3 mps 757 mmHg 65%
17:00 +30°C° 0.3 mm 3 mps 758 mmHg 74%
18:00 +28°C° 0.3 mm 3 mps 758 mmHg 82%
19:00 +28°C° 0.6 mm 3 mps 758 mmHg 86%
20:00 +27°C° 0.6 mm 3 mps 759 mmHg 89%
21:00 +26°C° 0.6 mm 3 mps 759 mmHg 93%
22:00 +26°C° 0.5 mm 3 mps 759 mmHg 93%
23:00 +25°C° 0.5 mm 2 mps 759 mmHg 94%

16 July, Thursday

Time Temperature Precipitation Wind Pressure Humidity
00:00 +25°C° 0.5 mm 2 mps 759 mmHg 94%
01:00 +25°C° 0 mm 2 mps 759 mmHg 95%
02:00 +25°C° 0 mm 2 mps 759 mmHg 95%
03:00 +25°C° 0 mm 2 mps 758 mmHg 95%
04:00 +25°C° 0 mm 2 mps 758 mmHg 95%
05:00 +25°C° 0 mm 2 mps 758 mmHg 95%
06:00 +25°C° 0 mm 2 mps 759 mmHg 95%
07:00 +26°C° 0.1 mm 2 mps 759 mmHg 91%
08:00 +27°C° 0.1 mm 2 mps 760 mmHg 87%
09:00 +28°C° 0.1 mm 2 mps 760 mmHg 83%
10:00 +30°C° 0.1 mm 2 mps 760 mmHg 76%
11:00 +31°C° 0.1 mm 3 mps 760 mmHg 68%
12:00 +34°C° 0.1 mm 3 mps 760 mmHg 61%
13:00 +34°C° 0.1 mm 3 mps 759 mmHg 61%
14:00 +34°C° 0.1 mm 3 mps 758 mmHg 61%
15:00 +34°C° 0.1 mm 3 mps 758 mmHg 62%
16:00 +31°C° 0.2 mm 3 mps 758 mmHg 67%
17:00 +30°C° 0.2 mm 3 mps 758 mmHg 73%
18:00 +29°C° 0.2 mm 3 mps 758 mmHg 79%
19:00 +28°C° 0.4 mm 3 mps 758 mmHg 83%
20:00 +27°C° 0.4 mm 3 mps 759 mmHg 87%
21:00 +26°C° 0.4 mm 3 mps 760 mmHg 90%
22:00 +26°C° 0.2 mm 3 mps 760 mmHg 91%
23:00 +26°C° 0.2 mm 3 mps 760 mmHg 91%
Show more